[[{"header":{"parameterUnit":"m.s-1","parameterCategory":1,"la1":30.2991,"la2":30.254,"lo1":-89.0895,"lo2":-89.0444,"dy":0.0017,"dx":0.0017,"nx":28,"ny":28,"refTime":"2024-03-17T09:00:00:Z","depth":0,"parameterNumber":2,"parameterNumberName":"U-component_of_WINDS"},"data":[0,0,0,0,0,0,0,0,0,0,0,0,0,0,0,0,0,0,0,0,0,0,0,0,0,0,0,0,0,0,0,0,0,0,0,0,0,0,0,0,0,0,0,0,0,0,0,0,0,0,0,0,0,0,0,0,0,0,-0.5975,-0.5973,0,-0.5828,-0.5827,-0.5825,-0.5736,-0.5735,-0.5735,-0.5735,-0.558,-0.5577,-0.5573,0,0,0,0,0,0,0,0,0,0,0,0,0,-0.6174,-0.6171,-0.5975,-0.5973,-0.5971,-0.5829,-0.5827,-0.5825,-0.5736,-0.5735,-0.5735,-0.5734,-0.5582,-0.5577,-0.5573,0,0,0,0,0,0,0,0,0,0,0,0,0,-0.6064,-0.617,-0.5975,-0.591,-0.5903,-0.5829,-0.5827,-0.5824,-0.5736,-0.5735,-0.5735,-0.5734,-0.5583,-0.5578,-0.5572,-0.5551,0,0,-0.5555,-0.5553,0,0,0,0,0,0,0,0,-0.607,-0.6056,-0.5921,-0.5914,-0.5906,-0.58,-0.584,-0.5732,-0.5736,-0.5799,-0.5734,-0.5734,-0.5654,-0.5642,-0.5616,-0.5544,-0.5537,-0.5555,-0.5551,-0.5549,-0.5547,0,0,0,0,0,0,0,-0.6078,-0.6062,-0.5917,-0.592,-0.591,-0.5887,-0.587,-0.5819,-0.5732,-0.5794,-0.5787,-0.5771,-0.5649,-0.5622,-0.5612,-0.5535,-0.5555,-0.555,-0.5546,-0.5544,-0.5438,-0.5438,0,0,0,0,0,0,-0.6096,-0.6069,-0.5922,-0.5913,-0.5988,-0.5884,-0.5865,-0.5835,-0.5732,-0.5716,-0.5772,-0.5767,-0.5631,-0.5618,-0.5606,-0.5574,-0.5549,-0.5544,-0.5541,-0.5437,-0.5438,-0.5438,0,0,0,0,0,0,-0.6101,-0.6084,-0.5927,-0.5989,-0.5967,-0.5881,-0.5847,-0.5832,-0.5804,-0.5715,-0.5699,-0.576,-0.563,-0.5614,-0.5566,-0.5568,-0.5541,-0.5536,-0.5437,-0.5437,-0.5438,-0.5512,0,0,0,0,0,0,-0.6107,-0.6086,-0.6078,-0.599,-0.5964,-0.5891,-0.5847,-0.583,-0.5795,-0.5788,-0.57,-0.5685,-0.5629,-0.5574,-0.556,-0.556,-0.5532,-0.5436,-0.5437,-0.5438,-0.5509,-0.5515,-0.552,0,0,0,0,0,-0.6115,-0.6104,-0.6078,-0.6061,-0.5953,-0.5891,-0.5877,-0.5814,-0.5796,-0.5787,-0.573,-0.5687,-0.557,-0.557,-0.5553,-0.5551,-0.5435,-0.5437,-0.5438,-0.5506,-0.5514,-0.552,0,0,0,0,0,0,-0.6194,-0.6091,-0.6062,-0.6022,-0.5967,-0.5876,-0.5863,-0.5824,-0.5771,-0.5766,-0.5689,-0.5669,-0.5629,-0.5585,-0.5587,-0.5525,-0.5498,-0.5496,-0.5556,-0.5562,-0.5568,-0.5579,-0.5527,0,0,0,0,0,-0.6207,-0.6167,-0.6079,-0.6052,-0.6026,-0.595,-0.592,-0.5877,-0.5815,-0.5791,-0.573,-0.5671,-0.562,-0.5589,-0.5537,-0.5502,-0.5481,-0.5492,-0.5498,-0.5503,-0.5502,-0.548,-0.5484,-0.5442,-0.5442,-0.5442,0,0,-0.6233,-0.6172,-0.6151,-0.6067,-0.6018,-0.5978,-0.593,-0.5889,-0.5857,-0.5784,-0.5735,-0.5689,-0.5617,-0.5576,-0.5554,-0.5538,-0.5509,-0.5505,-0.551,-0.5505,-0.5482,-0.5486,-0.5489,-0.5443,-0.5443,-0.5442,0,0,-0.626,-0.621,-0.6183,-0.6136,-0.6064,-0.6013,-0.6007,-0.5922,-0.5889,-0.5839,-0.5783,-0.5744,-0.5659,-0.5611,-0.5575,-0.5585,-0.5544,-0.557,-0.56,-0.558,-0.5583,-0.5585,-0.5589,-0.5591,-0.5569,-0.5569,-0.557,0,-0.6301,-0.6239,-0.6173,-0.6136,-0.61,-0.6033,-0.6004,-0.5961,-0.5876,-0.5852,-0.5835,-0.5728,-0.5675,-0.5621,-0.5624,-0.5597,-0.5587,-0.558,-0.5588,-0.559,-0.5591,-0.5594,-0.5595,-0.5573,-0.5573,-0.5572,-0.5572,0,-0.6293,-0.6251,-0.6237,-0.6158,-0.6121,-0.6088,-0.6016,-0.5986,-0.5946,-0.5897,-0.5847,-0.5781,-0.5716,-0.57,-0.5659,-0.564,-0.5632,-0.5603,-0.5573,-0.56,-0.5601,-0.5601,-0.5578,-0.5577,-0.5576,-0.5575,0,0,-0.6365,-0.6251,-0.6247,-0.6211,-0.6127,-0.6092,-0.6056,-0.5993,-0.5969,-0.5912,-0.5879,-0.5809,-0.5782,-0.5741,-0.5695,-0.5677,-0.5689,-0.5649,-0.5646,-0.5659,-0.5663,-0.5686,-0.5688,-0.5661,-0.5661,-0.5661,-0.5669,0,-0.638,-0.6313,-0.6253,-0.6208,-0.6168,-0.6104,-0.6072,-0.6016,-0.5969,-0.5927,-0.5875,-0.5827,-0.5794,-0.5769,-0.5749,-0.5692,-0.5689,-0.569,-0.5629,-0.5628,-0.5649,-0.5689,-0.5712,-0.5724,-0.5669,-0.5669,-0.5669,0,-0.6388,-0.6336,-0.6287,-0.6207,-0.6188,-0.6161,-0.6099,-0.606,-0.5995,-0.5962,-0.5918,-0.5869,-0.5827,-0.5803,-0.5743,-0.5746,-0.5717,-0.5685,-0.5684,-0.5676,-0.565,-0.5682,-0.5725,-0.5727,-0.5669,-0.5669,-0.5669,0,-0.6446,-0.6363,-0.6323,-0.6294,-0.62,-0.6182,-0.6142,-0.6077,-0.6043,-0.5988,-0.5966,-0.5906,-0.5874,-0.5829,-0.5765,-0.5753,-0.5712,-0.5682,-0.5683,-0.5685,-0.5677,-0.5678,-0.5717,-0.5659,-0.5659,-0.5659,-0.5659,0,-0.6468,-0.6441,-0.6348,-0.6324,-0.6291,-0.6222,-0.6191,-0.6144,-0.6087,-0.6052,-0.5992,-0.596,-0.5878,-0.5836,-0.5786,-0.5744,-0.573,-0.5701,-0.5688,-0.5707,-0.571,-0.5687,-0.5684,-0.5659,-0.5659,-0.5659,-0.5659,0,-0.6527,-0.6464,-0.6416,-0.6332,-0.631,-0.6289,-0.6216,-0.6189,-0.614,-0.6096,-0.6081,-0.6002,-0.595,-0.5882,-0.5807,-0.5774,-0.5738,-0.5718,-0.576,-0.5753,-0.5757,-0.5758,-0.5782,-0.5781,-0.5725,-0.5725,-0.5726,0,-0.6546,-0.6524,-0.6437,-0.641,-0.6372,-0.6329,-0.6295,-0.6226,-0.6192,-0.6118,-0.61,-0.6043,-0.5993,-0.5912,-0.5847,-0.579,-0.5768,-0.578,-0.5759,-0.5778,-0.5768,-0.577,-0.5768,-0.5786,-0.5787,-0.5788,-0.5788,0,-0.6586,-0.6556,-0.651,-0.6453,-0.6414,-0.6365,-0.6314,-0.6295,-0.6215,-0.618,-0.6127,-0.6089,-0.6013,-0.5957,-0.5892,-0.5848,-0.5805,-0.5796,-0.5793,-0.5811,-0.5837,-0.5823,-0.5775,-0.5795,-0.5795,-0.5794,-0.5794,-0.5793,-0.6624,-0.6602,-0.6538,-0.6488,-0.6443,-0.6397,-0.6368,-0.6315,-0.6269,-0.6204,-0.6165,-0.6113,-0.6048,-0.5956,-0.5915,-0.5872,-0.5856,-0.5852,-0.585,-0.5851,-0.5857,-0.5844,-0.586,-0.586,-0.5859,-0.5859,-0.5859,0,-0.6661,-0.6617,-0.6573,-0.6503,-0.6465,-0.6429,-0.637,-0.6339,-0.6295,-0.6239,-0.6192,-0.613,-0.6076,-0.6008,-0.5948,-0.5927,-0.5906,-0.5914,-0.5915,-0.5906,-0.5875,-0.5883,-0.5932,-0.5932,-0.5932,-0.5932,-0.5932,-0.5932,-0.6676,-0.6636,-0.6598,-0.6535,-0.649,-0.644,-0.6409,-0.6366,-0.6321,-0.6256,-0.6211,-0.6167,-0.6106,-0.6042,-0.599,-0.5971,-0.5952,-0.5967,-0.5942,-0.5914,-0.5908,-0.5901,-0.5909,-0.5963,-0.5963,-0.5976,-0.5976,-0.5977]},{"header":{"parameterUnit":"m.s-1","parameterCategory":1,"la1":30.2991,"la2":30.254,"lo1":-89.0895,"lo2":-89.0444,"dy":0.0017,"dx":0.0017,"nx":28,"ny":28,"refTime":"2024-03-17T09:00:00:Z","depth":0,"parameterNumber":3,"parameterNumberName":"V-component_of_WINDS"},"data":[0,0,0,0,0,0,0,0,0,0,0,0,0,0,0,0,0,0,0,0,0,0,0,0,0,0,0,0,0,0,0,0,0,0,0,0,0,0,0,0,0,0,0,0,0,0,0,0,0,0,0,0,0,0,0,0,0,0,0.6665,0.6664,0,0.6516,0.6515,0.6513,0.6491,0.6492,0.6494,0.6495,0.6337,0.6332,0.6327,0,0,0,0,0,0,0,0,0,0,0,0,0,0.6927,0.6922,0.6666,0.6664,0.6662,0.6517,0.6515,0.6513,0.6491,0.6492,0.6494,0.6496,0.6339,0.6333,0.6326,0,0,0,0,0,0,0,0,0,0,0,0,0,0.6799,0.692,0.6666,0.6634,0.6629,0.6517,0.6515,0.6512,0.649,0.6492,0.6494,0.6496,0.6341,0.6333,0.6325,0.6234,0,0,0.63,0.6297,0,0,0,0,0,0,0,0,0.6806,0.6789,0.664,0.6636,0.663,0.6524,0.6549,0.6419,0.649,0.6543,0.6495,0.6497,0.6398,0.6385,0.6352,0.6226,0.6219,0.6299,0.6294,0.6291,0.6289,0,0,0,0,0,0,0,0.6815,0.6796,0.6606,0.6638,0.6632,0.6625,0.6609,0.6524,0.646,0.6538,0.6536,0.6519,0.6395,0.636,0.6348,0.6217,0.63,0.6292,0.6287,0.6284,0.6006,0.6004,0,0,0,0,0,0,0.683,0.6803,0.6611,0.6602,0.6725,0.6619,0.6601,0.6556,0.6461,0.6449,0.6518,0.6519,0.6373,0.6358,0.6343,0.6227,0.6291,0.6283,0.6279,0.6009,0.6006,0.6003,0,0,0,0,0,0,0.6836,0.6814,0.6617,0.6702,0.6676,0.6612,0.6562,0.6552,0.6517,0.6446,0.6434,0.6494,0.6374,0.6354,0.6261,0.6221,0.628,0.6272,0.6012,0.6008,0.6005,0.5997,0,0,0,0,0,0,0.6844,0.6816,0.6781,0.6701,0.6672,0.6539,0.656,0.6548,0.6504,0.6504,0.642,0.6408,0.6374,0.6273,0.6253,0.6211,0.6266,0.6015,0.601,0.6006,0.6,0.5993,0.5988,0,0,0,0,0,0.6853,0.6784,0.678,0.6757,0.6628,0.6537,0.652,0.6484,0.6501,0.6464,0.6419,0.6411,0.623,0.6264,0.624,0.6196,0.6017,0.6011,0.6006,0.6003,0.5995,0.5988,0,0,0,0,0,0,0.6859,0.6773,0.6767,0.6671,0.6612,0.6533,0.6486,0.6476,0.6409,0.6412,0.6369,0.635,0.6258,0.6218,0.6257,0.6102,0.6125,0.6114,0.613,0.6122,0.6116,0.6126,0.6259,0,0,0,0,0,0.685,0.6785,0.6713,0.6634,0.6605,0.6551,0.651,0.6488,0.6424,0.6398,0.6345,0.6282,0.6211,0.6165,0.6096,0.5996,0.5976,0.5954,0.5947,0.5942,0.5933,0.5875,0.5863,0.5985,0.5985,0.5985,0,0,0.6829,0.6774,0.6735,0.6634,0.6586,0.6517,0.653,0.6457,0.6405,0.6386,0.6294,0.6254,0.6181,0.6083,0.6038,0.6047,0.5895,0.5935,0.5932,0.5925,0.5868,0.5856,0.5846,0.5981,0.5982,0.5983,0,0,0.6754,0.6708,0.6637,0.6588,0.6515,0.648,0.6463,0.6386,0.6359,0.6267,0.6251,0.6188,0.6067,0.6015,0.5972,0.588,0.5869,0.5859,0.5824,0.5768,0.5758,0.5749,0.5714,0.5702,0.585,0.585,0.585,0,0.6737,0.6635,0.6601,0.6529,0.6484,0.6466,0.6392,0.6347,0.6254,0.6223,0.6236,0.6083,0.6032,0.5921,0.5899,0.5866,0.5843,0.5866,0.5763,0.5754,0.5745,0.571,0.5697,0.5849,0.5849,0.5849,0.5849,0,0.6615,0.6545,0.6496,0.6408,0.6358,0.6286,0.6239,0.6193,0.6175,0.6138,0.6044,0.5983,0.59,0.5873,0.5855,0.5759,0.5767,0.5772,0.5794,0.5733,0.5699,0.5686,0.5848,0.5848,0.5848,0.5849,0,0,0.6537,0.6434,0.6416,0.6375,0.6294,0.6238,0.6165,0.6085,0.6045,0.5983,0.5918,0.5816,0.582,0.5773,0.5748,0.57,0.5627,0.571,0.5708,0.5694,0.5515,0.5509,0.5494,0.5621,0.5619,0.5617,0.552,0,0.6452,0.6321,0.6289,0.6176,0.6109,0.6092,0.6028,0.597,0.5934,0.587,0.583,0.5758,0.577,0.5741,0.5692,0.5646,0.559,0.5653,0.5557,0.5555,0.5573,0.5477,0.5471,0.5382,0.5507,0.5505,0.5503,0,0.6333,0.6269,0.615,0.6077,0.6048,0.5991,0.5915,0.5856,0.579,0.5767,0.5714,0.5694,0.5615,0.5644,0.5533,0.5577,0.5536,0.5508,0.5503,0.549,0.5523,0.5458,0.5353,0.5339,0.5483,0.5484,0.5486,0,0.6285,0.6169,0.6083,0.6049,0.5962,0.5922,0.5884,0.582,0.5774,0.5708,0.5678,0.5603,0.5561,0.5503,0.5463,0.5488,0.5354,0.538,0.533,0.5331,0.5299,0.5301,0.5184,0.528,0.528,0.528,0.528,0,0.619,0.6117,0.606,0.6006,0.5923,0.5887,0.5806,0.5767,0.5711,0.5648,0.5629,0.557,0.5523,0.5458,0.5426,0.5337,0.5319,0.5297,0.5288,0.5296,0.5299,0.5266,0.527,0.5276,0.5277,0.5278,0.5279,0,0.612,0.6079,0.5983,0.591,0.589,0.5832,0.5768,0.5715,0.5679,0.56,0.5579,0.5522,0.5444,0.54,0.5301,0.528,0.518,0.5176,0.5202,0.5198,0.5149,0.5153,0.5003,0.498,0.5095,0.5094,0.5093,0,0.606,0.6004,0.5925,0.5883,0.5844,0.5776,0.5729,0.5692,0.5644,0.5565,0.552,0.5442,0.5376,0.5251,0.52,0.5124,0.5116,0.5069,0.5104,0.5113,0.5111,0.5114,0.5106,0.5062,0.5061,0.506,0.5059,0,0.5957,0.594,0.5875,0.5803,0.5748,0.5689,0.563,0.5596,0.5548,0.5495,0.5416,0.5365,0.5265,0.5186,0.5106,0.5065,0.5052,0.5049,0.5033,0.5038,0.5054,0.5041,0.5182,0.5052,0.5052,0.5053,0.5053,0.5054,0.5888,0.5837,0.5773,0.5701,0.5653,0.5599,0.5545,0.5503,0.5437,0.5353,0.5335,0.5251,0.5185,0.5077,0.5034,0.4966,0.4974,0.4951,0.4945,0.4939,0.4935,0.5069,0.4952,0.4952,0.4952,0.4952,0.4952,0,0.5782,0.5741,0.5675,0.5593,0.5536,0.5534,0.5468,0.542,0.5346,0.5287,0.5224,0.5132,0.5055,0.4999,0.492,0.4876,0.4868,0.4856,0.4857,0.4847,0.4934,0.4954,0.4864,0.4864,0.4864,0.4864,0.4864,0.4864,0.5719,0.5631,0.5607,0.5495,0.5454,0.5372,0.5334,0.5283,0.5236,0.5135,0.5071,0.5036,0.4977,0.4894,0.4823,0.4809,0.4779,0.4767,0.4751,0.4832,0.4841,0.485,0.4869,0.4761,0.4761,0.4669,0.4668,0.4667]}]]